Home > Weather > Mahrajganj > Past weeks

Flag for India Past Weather in Mahrajganj, Uttar Pradesh, India — Yesterday and Last 2 Weeks

Now
66 °F

Passing clouds.


Feels Like: 66 °F
Forecast: 76 / 99 °F
Wind: 5 mph from East

Location: Kathmandu Airport

Current Time: May 30, 2016 at 11:54:50 PM

Latest Report: May 30, 2016 at 11:20 PM


Visibility: 4 mi

Pressure: 29.89 "Hg

Humidity: 83%

Dew Point: 61 °F

Location of MahrajganjLocation

Past Weather in Mahrajganj — Graph

°F

Mahrajganj Temperature Yesterday

Maximum temperature yesterday: 73 °F (at 5:20 PM)
Minimum temperature yesterday: 63 °F (at 10:50 PM)
Average temperature yesterday: 67 °F

High & Low Weather Summary for the Past Weeks

 TemperatureHumidityPressure
High86 °F (May 16, 2:20 PM)100% (May 30, 5:20 AM)29.95 "Hg (May 30, 5:20 AM)
Low59 °F (May 18, 3:20 AM)26% (May 26, 11:20 AM)29.65 "Hg (May 25, 3:20 PM)
Average71 °F74%29.84 "Hg
* Reported May 15 10:50 PM — May 30 10:50 PM, Mahrajganj, Weather by CustomWeather, © 2016

Note: Actual official high and low records may vary slightly from our data, if they occured in-between our weather recording intervals... More about our weather records

Advertising

Mahrajganj Weather History for the Previous 24 Hours

Scroll right to see more
 ConditionsComfort  
Time TempWeatherWind HumidityBarometerVisibility
10:50 PM
Mon, May 30
66 °FPassing clouds.3 mph88%29.89 "Hg4 mi
9:50 PM68 °FPassing clouds.2 mph83%29.89 "Hg4 mi
9:20 PM68 °FPassing clouds.5 mph78%29.89 "Hg4 mi
8:50 PM68 °FPassing clouds.3 mph83%29.89 "Hg4 mi
8:20 PM68 °FPassing clouds.5 mph83%29.86 "Hg5 mi
7:50 PM72 °FPassing clouds.3 mph69%29.86 "Hg5 mi
7:20 PM72 °FPassing clouds.No wind69%29.83 "HgN/A
6:50 PM73 °FPassing clouds.No wind65%29.83 "HgN/A
6:20 PM73 °FPassing clouds.2 mph65%29.83 "HgN/A
5:50 PM75 °FPassing clouds.2 mph61%29.83 "HgN/A
5:20 PM73 °FPassing clouds.2 mph65%29.83 "HgN/A
4:50 PM75 °FScattered clouds.2 mph65%29.83 "HgN/A
4:20 PM73 °FBroken clouds.5 mph65%29.83 "HgN/A
3:50 PM75 °FBroken clouds.5 mph65%29.83 "HgN/A
3:20 PM75 °FBroken clouds.6 mph61%29.86 "HgN/A
2:50 PM72 °FBroken clouds.9 mph69%29.86 "HgN/A
2:20 PM72 °FBroken clouds.12 mph69%29.89 "Hg5 mi
1:50 PM70 °FBroken clouds.13 mph73%29.89 "Hg5 mi
1:20 PM72 °FBroken clouds.18 mph69%29.89 "Hg5 mi
12:50 PM77 °FBroken clouds.N/A61%29.89 "HgN/A
12:20 PM77 °FBroken clouds.7 mph61%29.89 "HgN/A
11:50 AM77 °FBroken clouds.7 mph57%29.89 "HgN/A
11:20 AM79 °FPassing clouds.6 mph58%29.92 "HgN/A
10:50 AM79 °FPassing clouds.5 mph51%29.92 "HgN/A
10:20 AM77 °FPassing clouds.No wind57%29.92 "Hg4 mi
9:50 AM75 °FScattered clouds.3 mph61%29.92 "Hg4 mi
9:20 AM73 °FScattered clouds.3 mph65%29.92 "Hg4 mi
8:50 AM72 °FPassing clouds.3 mph69%29.92 "Hg4 mi
8:20 AM70 °FPassing clouds.2 mph78%29.92 "Hg4 mi
7:50 AM68 °FFog.2 mph83%29.89 "Hg3 mi
7:20 AM66 °FFog.No wind83%29.89 "Hg2 mi
6:50 AM64 °FFog.No wind88%29.89 "Hg2 mi
6:20 AM63 °FFog.2 mph94%29.89 "Hg2 mi
5:20 AM59 °FFog.No wind100%29.86 "Hg1 mi
4:20 AM61 °FPassing clouds.No wind94%29.86 "Hg3 mi
3:20 AM61 °FPassing clouds.No wind94%29.86 "Hg4 mi
2:20 AM61 °FPassing clouds.3 mph94%29.86 "Hg4 mi
1:20 AM63 °FPassing clouds.No wind88%29.86 "Hg4 mi
12:20 AM63 °FPassing clouds.2 mph94%29.86 "Hg4 mi
11:50 PM
Sun, May 29
63 °FPassing clouds.2 mph94%29.86 "Hg4 mi
11:20 PM64 °FPassing clouds.No wind88%29.86 "Hg4 mi
Weather by CustomWeather, © 2016

See weather overviewHow to use our weather pages